Location: Sabalos
(43.2860°N, 0.1414°E)
Time: 07:32:08
(UTC+00:00)

Nadezhda 3 Rocket - Pass Details

Date: 05 July 2020
Orbit: 956 x 1000 km, 82.9° (Epoch: 14 August)

Event Time Altitude Azimuth Distance (km) Brightness Sun altitude
Rises 23:02:43 0° 348° (NNW) 3,732 8.5 -22.5°
Reaches altitude 10° 23:05:17 10° 345° (NNW) 2,777 7.5 -22.7°
Maximum altitude 23:11:32 61° 268° (W) 1,123 4.3 -22.9°
Enters shadow 23:13:50 38° 206° (SSW) 1,460 4.5 -23.0°
